#timestamp,LO_Frequency,Hit,StdDev 
1544349615.0,286047004.9,N
1544349615.9,286047004.9,N
1544349635.8,286047005.2,N
1544349655.6,286047002.1,N
1544349675.4,286047002.0,N
1544349695.3,286047001.5,N
1544349715.1,286047005.3,N
1544349735.8,286047004.0,N
1544349755.7,286047003.4,N
1544349775.5,286047000.0,N
1544349795.4,286047001.9,N
1544349815.2,286047001.7,N
1544349835.0,286047001.8,N
1544349835.9,286047001.8,N
1544349855.8,286047003.9,N
1544349875.6,286047007.1,N
1544349895.5,286047008.7,N
1544349915.3,286047009.1,N
1544349935.1,286047006.6,N
1544349955.9,286047004.6,N
1544349975.7,286047001.7,N
1544349995.5,286047004.1,N
1544350015.4,286047007.6,N
1544350035.2,286047010.5,Y
1544350055.1,286047006.7,P
1544350056.0,286047006.7,P
1544350075.8,286047007.5,P
1544350095.6,286047006.6,Y
1544350115.5,286046999.7,P
1544350135.3,286047006.0,N
1544350155.1,286047002.9,N
1544350175.9,286047005.6,N
1544350195.7,286047005.6,N
1544350215.6,286047005.1,N
1544350235.4,286047003.0,N
1544350255.2,286047003.1,N
1544350275.1,286047004.1,N
1544350276.0,286047004.1,N
1544350295.8,286047003.7,N
1544350315.6,286047001.4,N
1544350335.5,286047002.9,N
1544350355.3,286047002.4,N
1544350375.2,286046998.5,N
1544350395.9,286046997.4,N
1544350415.7,286046991.7,Y
1544350435.6,286046992.5,P
1544350455.4,286046993.4,N
1544350475.2,286046993.6,N
1544350495.1,286046990.5,N
1544350496.0,286046990.5,N
1544350515.8,286046990.3,N
1544350535.7,286046994.8,N
1544350555.5,286046994.3,N
1544350575.3,286046995.4,N
1544350595.2,286046996.0,N
1544350615.0,286046994.2,N
1544350615.9,286046994.2,N
1544350635.7,286046993.0,N
1544350655.6,286046991.3,N
1544350675.4,286046990.5,Y
1544350695.3,286047000.7,P
1544350715.1,286046998.1,N
1544350716.0,286046998.1,N
1544350735.8,286046995.4,N
1544350755.7,286046995.7,N
1544350775.5,286046994.1,N
1544350795.4,286046995.6,N
1544350815.2,286046996.8,N
1544350835.0,286046998.6,N
1544350835.9,286046998.6,N
1544350855.8,286046997.4,N
1544350875.6,286047001.2,N
1544350895.4,286047000.3,N
1544350915.3,286047000.1,N
1544350935.1,286047001.6,N
1544350955.9,286047002.2,N
1544350975.7,286047001.9,N
1544350995.5,286047001.6,N
1544351015.4,286047003.7,N
1544351035.2,286047001.7,N
1544351055.0,286046999.7,N
1544351056.0,286046999.7,N
1544351075.8,286047001.2,N
1544351095.6,286047001.2,N
1544351115.5,286047001.9,N
1544351135.3,286047003.7,N
1544351155.1,286047002.5,N
1544351175.9,286046999.7,N
1544351195.7,286047000.9,N
1544351215.5,286047002.8,N
1544351235.4,286047000.2,N
1544351255.2,286046995.8,N
1544351275.1,286046995.3,N
1544351276.0,286046995.3,N
1544351295.8,286046997.7,N
1544351315.6,286047000.7,N
1544351335.5,286047001.9,N
1544351355.3,286047000.3,N
1544351375.1,286046995.6,N
1544351395.9,286046990.5,Y
1544351415.7,286046986.4,P
1544351435.6,286046979.2,P
1544351455.4,286046980.3,N
1544351475.2,286046977.9,N
1544351495.1,286046980.2,N
1544351496.0,286046980.2,N
1544351515.8,286046981.8,N
1544351535.6,286046982.8,N
1544351555.5,286046983.2,N
1544351575.3,286046982.8,N
1544351595.2,286046986.5,N
1544351615.9,286046988.4,N
1544351635.7,286046986.6,N
1544351655.6,286046979.5,Y
1544351675.4,286046992.1,P
1544351695.2,286046989.3,N
1544351715.1,286046988.9,P
1544351716.0,286046988.9,Y
1544351735.8,286046996.7,P
1544351755.7,286046997.9,N
1544351775.5,286046996.6,N
1544351795.3,286046999.7,N
1544351815.2,286047001.5,N
1544351835.0,286047007.2,N
1544351835.9,286047007.2,N
1544351855.7,286047004.6,N
1544351875.6,286047007.7,N
1544351895.4,286047015.6,N
1544351915.3,286047014.2,N
1544351935.1,286047014.1,N
1544351936.0,286047014.1,N
1544351955.8,286047013.9,N
1544351975.7,286047012.0,N
1544351995.5,286047012.2,N
1544352015.3,286047018.8,N
1544352035.2,286047016.8,N
1544352055.0,286047015.2,N
1544352055.9,286047015.2,N
1544352075.8,286047016.5,N
1544352095.6,286047018.5,N
1544352115.4,286047014.2,N
1544352135.3,286047016.0,N
1544352155.1,286047020.3,N
1544352175.9,286047020.8,N
1544352195.7,286047021.7,N
1544352215.5,286047020.5,N
1544352235.4,286047021.3,N
1544352255.2,286047019.4,N
1544352275.0,286047019.5,N
1544352275.9,286047019.5,N
1544352295.8,286047019.6,N
1544352315.6,286047017.3,N
1544352335.5,286047021.9,Y
1544352355.3,286047006.6,P
1544352375.1,286047007.0,N
1544352395.9,286047008.9,N
1544352415.7,286047008.4,N
1544352435.5,286047007.9,N
1544352455.4,286047006.6,N
1544352475.2,286047005.1,N
1544352495.1,286047000.3,N
1544352496.0,286047000.3,N
1544352515.8,286047002.4,N
1544352535.6,286047001.8,N
1544352555.5,286047002.3,N
1544352575.3,286047003.2,N
1544352595.1,286047005.8,N
1544352615.9,286047002.3,N
1544352635.7,286046997.0,N
1544352655.6,286046995.8,N
1544352675.4,286046995.7,N
1544352695.2,286047001.1,N
1544352715.1,286047003.2,N
1544352716.0,286047003.2,N
1544352735.8,286047005.2,N
1544352755.7,286047005.7,N
1544352775.5,286047004.8,N
1544352795.3,286047000.6,N
1544352815.2,286046994.3,N
1544352835.0,286046995.3,N
1544352835.9,286046995.3,N
1544352855.7,286046998.5,N
1544352875.6,286046999.4,N
1544352895.4,286046993.5,N
1544352915.3,286046992.2,N
1544352935.1,286046997.7,N
1544352936.0,286046997.7,N
1544352955.8,286047001.0,N
1544352975.7,286046998.8,N
1544352995.5,286046999.8,N
1544353015.3,286047002.0,N
1544353035.2,286047002.9,N
1544353055.0,286047003.9,N
1544353055.9,286047003.9,N
1544353075.8,286047006.0,N
1544353095.6,286047003.2,N
1544353115.4,286047001.9,N
1544353135.3,286046999.8,N
1544353155.1,286046999.2,N
1544353175.9,286047001.1,N
1544353195.7,286046997.1,N
